Regional Weather Roundup
Issued by NWS

Home | Current Version | Previous Version | Graphics & Text | Print | Product List | Glossary On
Versions: 1 2 3 4 5 6 7 8 9 10 11 12 13 14 15 16 17 18 19 20 21 22 23 24 25 26 27 28 29 30 31 32 33 34 35 36 37 38 39 40 41 42 43 44 45 46 47 48 49 50
000
ASUS43 KLSX 022007
RWRMO

WEATHER SUMMARY FOR MISSOURI
NATIONAL WEATHER SERVICE SPRINGFIELD MO
300 PM CDT THU JUL 02 2015

NOTE: "FAIR" INDICATES FEW OR NO CLOUDS BELOW 12,000 FEET WITH NO
       SIGNIFICANT WEATHER AND/OR OBSTRUCTIONS TO VISIBILITY.
       CURRENT SKY AND/OR WEATHER CONDITIONS ARE NOT AVAILABLE FOR
       CHILLICOTHE AND FARMINGTON.

MOZ001>031-035>038-043-044-053-054-022100-
...NORTHERN AND WESTERN MISSOURI...

CITY           SKY/WX    TMP DP  RH WIND       PRES   REMARKS
KANSAS CTY INT LGT RAIN  71  67  87 E10       29.94F FOG
KANSAS C DTWN  CLOUDY    73  67  81 NE7       29.93S
LEE`S SUMMIT   LGT RAIN  72  67  84 NE3       29.94S
ST JOSEPH      LGT RAIN  71  67  87 E5        29.94S
CHILLICOTHE      N/A     74  65  73 CALM      29.95F
KIRKSVILLE     CLOUDY    72  58  61 NE10      29.96S

$$
MOZ066>068-077>081-088>096-101>105-022100-
...SOUTHWEST MISSOURI...

CITY           SKY/WX    TMP DP  RH WIND       PRES   REMARKS
SPRINGFIELD    PTSUNNY   82  72  71 N9        29.88S
JOPLIN         CLOUDY    82  73  74 N10       29.88S

$$
MOZ032>034-039>042-045>050-055>058-069>072-022100-
...CENTRAL MISSOURI...

CITY           SKY/WX    TMP DP  RH WIND       PRES   REMARKS
COLUMBIA       CLOUDY    74  66  76 NE9       29.91S
JEFFERSON CITY CLOUDY    75  66  73 NE7       29.89F
ROLLA          CLOUDY    74  69  85 NE9       29.88F
SEDALIA        CLOUDY    75  67  76 N7        29.93R
WHITEMAN AFB   CLOUDY    74  69  82 NE10      29.90S
WARRENSBURG    CLOUDY    73  68  83 N6        29.92R
OSAGE BEACH    CLOUDY    75  68  78 NE7       29.89S

$$
MOZ051-052-059>065-022100-
...EAST CENTRAL MISSOURI...

CITY           SKY/WX    TMP DP  RH WIND       PRES   REMARKS
ST LOUIS INTL  CLOUDY    77  64  64 NE8       29.90F
SPIRIT OF STL  CLOUDY    76  67  73 E9        29.89F
ST CHARLES     PTSUNNY   76  65  68 NE8       29.89F

$$
MOZ072>076-082>087-097>100-106>115-022100-
...SOUTH CENTRAL AND SOUTHEAST MISSOURI...

CITY           SKY/WX    TMP DP  RH WIND       PRES   REMARKS
CAPE GIRARDEAU PTSUNNY   81  73  76 N8        29.84F
FARMINGTON     CLOUDY    73  70  88 N9        29.93S
POPLAR BLUFF   CLOUDY    84  70  62 NW6       29.84S
WEST PLAINS    PTSUNNY   83  72  69 VRB6      29.88F

$$


USA.gov is the U.S. government's official web portal to all federal, state and local government web resources and services.